#timestamp,LO_Frequency,Hit 
1498881615.8,286047017.5,N
1498881635.7,286047018.7,N
1498881655.5,286047017.5,N
1498881675.3,286047016.9,N
1498881695.1,286047015.2,N
1498881715.9,286047013.2,N
1498881735.7,286047016.5,N
1498881755.5,286047017.4,N
1498881775.4,286047021.0,N
1498881795.2,286047022.9,N
1498881815.0,286047023.4,N
1498881815.9,286047023.4,N
1498881835.8,286047020.8,N
1498881855.6,286047023.4,N
1498881875.4,286047022.4,N
1498881895.3,286047022.7,N
1498881915.1,286047023.1,N
1498881916.0,286047023.1,N
1498881935.8,286047021.1,N
1498881955.7,286047023.6,N
1498881975.5,286047021.2,N
1498881995.3,286047023.1,N
1498882015.1,286047021.4,N
1498882035.9,286047024.2,N
1498882055.7,286047026.3,N
1498882075.5,286047026.3,N
1498882095.4,286047025.7,N
1498882115.2,286047027.3,N
1498882135.0,286047031.6,N
1498882135.9,286047031.6,N
1498882155.8,286047028.6,N
1498882175.6,286047029.0,N
1498882195.4,286047031.3,N
1498882215.3,286047029.8,N
1498882235.1,286047029.2,N
1498882236.0,286047029.2,N
1498882255.8,286047027.5,N
1498882275.7,286047025.8,N
1498882295.5,286047029.4,N
1498882315.3,286047029.3,N
1498882335.1,286047027.5,N
1498882355.9,286047028.3,N
1498882375.7,286047025.6,N
1498882395.5,286047025.3,N
1498882415.4,286047026.4,N
1498882435.2,286047022.5,N
1498882455.0,286047020.5,N
1498882455.9,286047020.5,N
1498882475.8,286047022.5,N
1498882495.6,286047021.0,N
1498882515.4,286047022.6,N
1498882535.3,286047024.2,N
1498882555.1,286047025.0,N
1498882556.0,286047025.0,N
1498882575.8,286047026.1,N
1498882595.7,286047024.0,N
1498882615.5,286047023.8,N
1498882635.3,286047022.6,N
1498882655.2,286047024.5,N
1498882675.9,286047026.8,N
1498882695.7,286047022.9,N
1498882715.6,286047022.5,N
1498882735.4,286047024.5,N
1498882755.2,286047022.8,N
1498882775.0,286047022.2,N
1498882775.9,286047022.2,N
1498882795.8,286047024.0,N
1498882815.6,286047025.9,N
1498882835.4,286047023.9,N
1498882855.3,286047025.7,N
1498882875.1,286047029.4,N
1498882895.8,286047032.3,N
1498882915.7,286047034.7,N
1498882935.5,286047036.0,N
1498882955.3,286047033.5,N
1498882975.2,286047033.4,N
1498882995.9,286047036.0,N
1498883015.7,286047035.6,N
1498883035.6,286047035.7,N
1498883055.4,286047032.2,N
1498883075.2,286047031.6,N
1498883095.0,286047029.5,N
1498883096.0,286047029.5,N
1498883115.8,286047030.5,N
1498883135.6,286047031.7,N
1498883155.4,286047034.3,N
1498883175.3,286047034.6,N
1498883195.1,286047032.6,N
1498883215.8,286047030.7,N
1498883235.7,286047030.3,N
1498883255.5,286047030.0,N
1498883275.3,286047030.9,N
1498883295.2,286047029.7,N
1498883315.2,286047028.3,N
1498883335.1,286047029.1,N
1498883336.0,286047029.1,N
1498883355.8,286047033.0,N
1498883375.6,286047032.9,N
1498883395.5,286047036.3,N
1498883415.3,286047033.3,N
1498883435.1,286047033.0,N
1498883455.9,286047030.1,N
1498883475.7,286047031.1,N
1498883495.5,286047030.8,N
1498883515.4,286047028.8,N
1498883535.2,286047027.4,N
1498883555.0,286047025.4,N
1498883555.9,286047025.4,N
1498883575.8,286047026.0,N
1498883595.6,286047024.3,N
1498883615.4,286047028.0,N
1498883635.3,286047027.1,N
1498883655.1,286047027.8,N
1498883656.0,286047027.8,N
1498883675.8,286047024.5,N
1498883695.6,286047027.0,N
1498883715.5,286047029.0,N
1498883735.3,286047029.0,N
1498883755.1,286047028.5,N
1498883775.9,286047033.0,N
1498883795.7,286047034.5,N
1498883815.5,286047032.1,N
1498883835.4,286047032.4,N
1498883855.2,286047030.6,N
1498883875.0,286047030.0,N
1498883875.9,286047030.0,N
1498883895.8,286047029.6,N
1498883915.6,286047029.4,N
1498883935.4,286047029.8,N
1498883955.3,286047028.2,N
1498883975.1,286047025.6,N
1498883976.0,286047025.6,N
1498883995.8,286047022.5,N
1498884015.7,286047023.6,N
1498884035.5,286047023.1,N
1498884055.3,286047025.3,N
1498884075.1,286047028.1,N
1498884095.9,286047029.6,N
1498884115.7,286047032.8,N
1498884135.5,286047033.4,N
1498884155.4,286047035.2,N
1498884175.2,286047035.0,N
1498884195.0,286047035.4,N
1498884195.9,286047035.4,N
1498884215.8,286047033.9,N
1498884235.6,286047033.4,N
1498884255.4,286047037.5,N
1498884275.3,286047035.9,N
1498884295.1,286047038.0,N
1498884296.0,286047038.0,N
1498884315.8,286047035.2,N
1498884335.7,286047036.0,N
1498884355.5,286047037.7,N
1498884375.3,286047038.5,N
1498884395.2,286047038.1,N
1498884415.9,286047038.8,N
1498884435.7,286047040.8,N
1498884455.6,286047040.1,N
1498884475.4,286047040.3,N
1498884495.2,286047038.7,N
1498884515.0,286047039.4,N
1498884516.0,286047039.4,N
1498884535.8,286047037.7,N
1498884555.6,286047033.6,N
1498884575.4,286047034.2,N
1498884595.3,286047030.1,N
1498884615.1,286047031.8,N
1498884635.8,286047034.0,N
1498884655.7,286047036.0,N
1498884675.5,286047032.5,N
1498884695.3,286047032.0,N
1498884715.2,286047032.4,N
1498884735.9,286047033.6,N
1498884755.7,286047036.3,N
1498884775.6,286047034.0,N
1498884795.4,286047029.7,N
1498884815.2,286047033.2,N
1498884835.0,286047030.8,N
1498884836.0,286047030.8,N
1498884855.8,286047027.0,N
1498884875.6,286047028.4,N
1498884895.4,286047027.0,N
1498884915.3,286047027.1,N
1498884935.1,286047028.2,N
1498884955.8,286047028.2,N
1498884975.7,286047031.6,N
1498884995.5,286047032.7,N
1498885015.3,286047032.7,N
1498885035.2,286047032.6,N
1498885055.9,286047033.5,N
1498885075.7,286047034.3,N
1498885095.6,286047033.1,N
1498885115.4,286047033.0,N
1498885135.2,286047029.7,N
1498885155.0,286047026.9,N
1498885156.0,286047026.9,N
1498885175.8,286047026.5,N
1498885195.6,286047025.2,N
